Regional Weather Roundup
Issued by NWS

Home | Current Version | Previous Version | Text Only | Print | Product List | Glossary On
Versions: 1 2 3 4 5 6 7 8 9 10 11 12 13 14 15 16 17 18 19 20 21 22 23 24 25 26 27 28 29 30 31 32 33 34 35 36 37 38 39 40 41 42 43 44 45 46 47 48 49 50
000
ASCA42 TJSJ 250910
RWRPR
PUERTO RICO/U.S. VIRGIN ISLANDS HOURLY WEATHER ROUNDUP
NATIONAL WEATHER SERVICE SAN JUAN PR
500 AM AST WED APR 25 2018

PRZ001>002-007>008-010-251000-
PUERTO RICO

CITY           SKY/WX    TMP DP  RH WIND       PRES   REMARKS
SAN JUAN LMM   PTCLDY    75  72  88 CALM      30.00S
CEIBA          MOCLDY    79  73  83 NE9       30.02
$$

VIZ001>002-251000-
U.S. VIRGIN ISLANDS

CITY           SKY/WX    TMP DP  RH WIND       PRES   REMARKS
CHARLOTTE AMA  CLOUDY    79  73  83 NE7       29.99R
CHRISTIANSTED  MOCLDY    73  73 100 N5        30.00R
$$

HOURLY WEATHER ROUNDUP FOR THE NEWS MEDIA

CITY           SKY/WX    TMP DP  RH WIND       PRES   REMARKS
NEW YORK       LGT RAIN  53  53 100 E14       30.00F
NEWARK         LGT RAIN  54  54 100 E9        29.98F FOG
CHICAGO        CLOUDY    46  29  51 N21       30.05R
HARTFORD       MOCLDY    52  45  77 SE13      30.12F
BOSTON         MOCLDY    47  41  80 NE7       30.14F
DALLAS         MOCLDY    67  55  65 CALM      30.04R
PHILADELPHIA   CLOUDY    55  54  96 E12       29.89F FOG
LOS ANGELES    CLOUDY    55  51  86 SW6       30.06S
WASHINGTON DC  LGT RAIN  53  53 100 N7        29.82F FOG


USA.gov is the U.S. government's official web portal to all federal, state and local government web resources and services.